Location: Unspecified
(0.0000°N, 0.0000°E)
Time: 11:29:08
(UTC+00:00)

Transit 4A - Pass Details

Date: 25 November 2019
Orbit: 870 x 975 km, 66.8° (Epoch: 13 December)

Event Time Altitude Azimuth Distance (km) Brightness Sun altitude
Rises 06:24:46 0° 353° (N) 3,440 10.6 8.9°
Reaches altitude 10° 06:27:21 10° 0° (N) 2,504 10.0 9.5°
Maximum altitude 06:32:47 43° 71° (ENE) 1,210 9.3 10.7°
Drops below altitude 10° 06:38:17 10° 141° (SE) 2,537 11.5 12.0°
Sets 06:40:55 0° 147° (SSE) 3,490 11.9 12.6°
